CZ-3C DEB, 40200

Orbit data source: Space-Track

CZ-3C DEB, 40200 is space debris originally from a launch on Fri, 24 Feb 2012 UTC launched from the Xichang Space Center, China (XSC). Debris objects in space refer to the collection of defunct objects orbiting the Earth. Examples of debris include non-operational satellites, rocket bodies, and fragments generated from explosions, collisions, or faulty payload assembly.

Loading next visibility...
CZ-3C DEB details
Identifier
40200, 2012-008K
Orbit
Molniya
Last TLE update2 days ago
Origin
Flag of CNCASC (CN / PRC)
ManufacturerCALT
MissionSpacecraft
Bus & MotorUnknown
MassUnknown
Launch date (UTC)
2012-02-24 (13 years ago)
Launch vehicleUnknown
Launch site
Xichang Space Center, China (XSC)
Object type
Payload
Rocket body
Debris
Shape & HBRUnknown
Radar Cross SectionMedium (>0.1 m² and <1 m²)

Expand to show TLE details & history

TLE from 2 days ago
0 CZ-3C DEB
1 40200U 12008K   24337.50243917 -.00000127  00000-0  00000-0 0  9998
2 40200  21.1410  62.5235 7006306 191.4132 135.0285  2.19232408 86406
Epoch: 2024-12-02T12:03Z
Definitive object data (Epoch: 2024-12-02T12:03:30.744Z)
Latitude0.00001°
Longitude169.81671°
Altitude34,325.185 km
Speed1.913 km/s
True Right ascension04h 10m 04s
True Declination0° 00' 00"
Sunlit
Object was in daylight at TLE epoch
Visualization TLE readout
Latitude1.86491°
Longitude174.08813°
Altitude35,428.778 km
Speed1.773 km/s
Apparent Right ascension04h 13m 41s
Apparent Declination-4° 08' 20"
Sunlit
Object is in daylight
Visualization observer readout
Local Sidereal Time06:14:04
Azimuth219.392° SW
Elevation37.991°
Doppler factor1
Orbital elements
Apogee altitude36,195.744 km
Perigee altitude1,116.328 km
Semi-major axis25,034.173 km
Eccentricity0.7006306
Inclination21.141°
RAAN62.5235°
Arg. of periapsis191.4132°
True anomaly168.56459°
Mean anomaly135.0285°
Eccentric anomaly153.1558°
Mean motion0.54795 °/min
BSTARUnknown
Orbital period656.99 mins
Loading maneuver chart data...
Loading historical data...
Loading historical data...
Loading historical data...
Loading historical data...
Loading historical data...
Loading historical data...
Loading historical data...

CZ-3C DEB Visibility forecast

Observer location: undefined°, undefined

Span
Click to sort rows by Start time (UTC) header in descending order
Start Az.
Max El. time (UTC)
Max El. Az.
Max El.
End time (UTC)
End Az.
369 mins2024-12-04 08:19:58.159Z219.379° SW2024-12-04 14:13:58.159Z209.824° SW35.883°2024-12-04 14:28:58.159Z139.763° SSE
353 mins2024-12-05 02:26:58.159Z178.9° S2024-12-05 08:19:58.159Z200.444° SSW37.896°2024-12-05 08:19:58.159Z200.444° SSW
|